(221) Eos
ephemeris date magn radius delta ra dec elong phase
Today13 Jul 202613.22.768 AU2.840 AU02h21m+05°12'75.6°20.8°
Opposition31 Oct 202611.82.855 AU1.888 AU02h43m-01°07'163.9°5.5°
(221) Eos - 2026-07-13
astro.vanbuitenen.nl


 
-1 year
-1 month
-1 day
Now
+1 day
+1 month
+1 year

The interactive orbit chart above shows the body's path through the solar system and its position at the given date. Green and blue lines are shown perpendicular to the ecliptic plane: Green if the path is above the ecliptic plane, blue if it is below. (Left-click and drag to rotate the view; Right-click and drag to move the view; Use scroll wheel to zoom in our out.)

The orbital elements of Eos are:

            e (Eccentricity)                : 0.1008881
            a (Semimajor axis)              : 3.0119012
            i (Inclination)                 : 10.89072
            Ω (Longitude of ascending node) : 141.71100
            ω (Argument of perihelion)      : 192.42898
            M (Mean anomaly)                : 26.70211
            Epoch                           : 2026 Jun 09

            L (Longitude of perihelion)     : 153.92290
            B (Latitude of perihelion)      : -2.33056
            P (Orbital period in years)     : 5.23            
        

The light curve chart below shows the estimated development of the minor planet's magnitude.


The all-sky chart below shows the path of the minor planet over the same period as the light curve. The current position is marked yellow.





The following chart shows the path of the minor planet in the next few days. The field of view is optimized for (~10x50) binoculars and finderscopes.




Ephemerides:
Date       Time       RA (2000)    DEC (2000)    delta   radius  elong  phase   PA    magn
2026-07-13 00:00 UT   02 21 36.0   +05 12 14     2.840    2.768   75.6   20.8   249   13.2 
2026-07-13 10:19 UT   02 22 05.7   +05 13 06     2.835    2.768   75.9   20.9   249   13.2 
2026-07-14 00:00 UT   02 22 45.0   +05 14 13     2.828    2.768   76.2   20.9   249   13.2 
2026-07-15 00:00 UT   02 23 53.3   +05 16 04     2.816    2.769   76.9   20.9   249   13.2 
2026-07-16 00:00 UT   02 25 01.0   +05 17 50     2.804    2.770   77.6   21.0   249   13.2 
2026-07-17 00:00 UT   02 26 08.1   +05 19 28     2.792    2.770   78.3   21.0   249   13.2 
2026-07-18 00:00 UT   02 27 14.5   +05 21 00     2.780    2.771   78.9   21.1   249   13.2 
2026-07-19 00:00 UT   02 28 20.2   +05 22 25     2.768    2.772   79.6   21.1   250   13.2 
2026-07-20 00:00 UT   02 29 25.2   +05 23 44     2.756    2.772   80.3   21.2   250   13.2 
2026-07-21 00:00 UT   02 30 29.5   +05 24 56     2.744    2.773   81.0   21.2   250   13.2 
2026-07-22 00:00 UT   02 31 33.1   +05 26 01     2.732    2.774   81.7   21.2   250   13.1 
2026-07-23 00:00 UT   02 32 36.0   +05 26 60     2.720    2.774   82.4   21.3   250   13.1 
2026-07-24 00:00 UT   02 33 38.2   +05 27 52     2.708    2.775   83.1   21.3   250   13.1 
2026-07-25 00:00 UT   02 34 39.6   +05 28 36     2.696    2.776   83.8   21.3   251   13.1 
2026-07-26 00:00 UT   02 35 40.2   +05 29 15     2.684    2.776   84.5   21.4   251   13.1 
2026-07-27 00:00 UT   02 36 40.1   +05 29 46     2.672    2.777   85.2   21.4   251   13.1 
2026-07-28 00:00 UT   02 37 39.2   +05 30 10     2.660    2.778   85.9   21.4   251   13.1 
2026-07-29 00:00 UT   02 38 37.5   +05 30 27     2.648    2.779   86.6   21.4   251   13.1 
2026-07-30 00:00 UT   02 39 35.0   +05 30 38     2.636    2.779   87.3   21.4   252   13.1 
2026-07-31 00:00 UT   02 40 31.7   +05 30 41     2.623    2.780   88.0   21.4   252   13.1 
2026-08-01 00:00 UT   02 41 27.6   +05 30 37     2.611    2.781   88.7   21.4   252   13.1 
2026-08-02 00:00 UT   02 42 22.5   +05 30 27     2.599    2.781   89.5   21.4   252   13.0 
2026-08-03 00:00 UT   02 43 16.7   +05 30 09     2.587    2.782   90.2   21.4   252   13.0 
2026-08-04 00:00 UT   02 44 09.9   +05 29 44     2.575    2.783   90.9   21.4   252   13.0 
2026-08-05 00:00 UT   02 45 02.3   +05 29 11     2.563    2.783   91.7   21.4   253   13.0 
2026-08-06 00:00 UT   02 45 53.7   +05 28 32     2.551    2.784   92.4   21.3   253   13.0 
2026-08-07 00:00 UT   02 46 44.2   +05 27 45     2.538    2.785   93.2   21.3   253   13.0 
2026-08-08 00:00 UT   02 47 33.7   +05 26 51     2.526    2.786   93.9   21.3   253   13.0 
2026-08-09 00:00 UT   02 48 22.3   +05 25 50     2.514    2.786   94.7   21.3   253   13.0 
2026-08-10 00:00 UT   02 49 09.9   +05 24 42     2.502    2.787   95.4   21.2   254   13.0 
2026-08-11 00:00 UT   02 49 56.5   +05 23 26     2.490    2.788   96.2   21.2   254   13.0 
2026-08-12 00:00 UT   02 50 42.1   +05 22 02     2.478    2.789   97.0   21.1   254   12.9 


    Terminology:
            
    delta:  distance between minor planet and earth in AU
    radius: distance between minor planet and sun in AU
    magn:   magnitude (brightness) estimate    
    ra:     right ascension in hours (24h = 360deg)
    dec:    declination in degrees
    elong:  elongation in degrees (angle sun-earth-minor planet)    
    phase:  phase angle in degrees (angle sun-minor planet-earth)        
    AU:     Astronomical Unit (mean distance between earth and sun: 149597870.7 km
    

Orbital elements provided by the MPC (Minor Planet Center).
Calculations by a modified version of AAPlus, a C# implementation of the AA+ project by PJ Naughter from the algorithms presented in the book "Astronomical Algorithms" by Jean Meeus.
NGC2000 dso catalog and star labels from VizieR as provided by the Strasbourg astronomical Data Center.
Tycho2 catalog from the ESO archive.